Location: Albany
(35.0170°S, 117.8920°E)
Time: 01:12:39
(UTC+08:00)

Explorer 7 - Pass Details

Date: 28 January 2021
Orbit: 484 x 677 km, 50.3° (Epoch: 01 March)

Event Time Altitude Azimuth Distance (km) Brightness Sun altitude
Rises 13:22:12 0° 338° (NNW) 2,999 10.9 68.4°
Reaches altitude 10° 13:24:44 10° 348° (NNW) 2,104 10.2 68.0°
Maximum altitude 13:29:02 31° 49° (NE) 1,186 8.9 67.4°
Drops below altitude 10° 13:33:21 10° 111° (ESE) 2,121 9.7 66.8°
Sets 13:35:55 0° 120° (ESE) 3,028 10.4 66.4°
